Location: Peterborough
(44.3091°N, 78.3197°W)
Time: 06:17:30
(UTC-04:00)

Vanguard 3 - Pass Details

Date: 30 March 2023
Orbit: 507 x 3246 km, 33.4° (Epoch: 04 June)

Event Time Altitude Azimuth Distance (km) Brightness Sun altitude
Rises 09:12:29 0° 279° (W) 7,200 11.4 22.9°
Reaches altitude 10° 09:18:36 10° 270° (W) 6,046 11.1 23.9°
Maximum altitude 09:32:10 27° 223° (SW) 4,074 10.7 26.2°
Drops below altitude 10° 09:42:17 10° 172° (S) 4,412 11.4 27.9°
Sets 09:45:55 0° 160° (SSE) 5,012 11.8 28.4°
